ARIANE 5 DEB (SYLDA), 54744

Orbit data source: Space-Track

ARIANE 5 DEB (SYLDA), 54744 is space debris in HEO originally from a launch on Tue, 13 Dec 2022 UTC launched from the French Guiana (FRGUI). Debris objects in space refer to the collection of defunct objects orbiting the Earth. Examples of debris include non-operational satellites, rocket bodies, and fragments generated from explosions, collisions, or faulty payload assembly.

Loading next visibility...
Identifier
54744, 2022-170D
Orbit
HEO
Country
Flag of FRFR
Related business
Manufacturer
ADS/Bremen
Mission
Spacecraft
Bus & Motor
SYLDA 5, Unknown motor
Mass
440 kg wet, 440 kg dry
Launch date (UTC)
2022-12-13 (3 years ago)
Launch vehicle
Unknown
Launch site
French Guiana (FRGUI)
Object type
Payload
Rocket body
Debris
Shape & HBR
Cyl, 2.8 m
Radar Cross Section
27.391 m², Large (>1 m²)

Expand to show TLE details & history
Last TLE update: 21 hours ago

TLE from 21 hours ago
0 ARIANE 5 DEB (SYLDA)
1 54744U 22170D   25307.99061874  .00114917  00000-0  65842-2 0  9997
2 54744   6.2449 145.0171 5773308 305.8215  13.2951  4.44403890 38331
Epoch: 2025-11-03T23:46Z
TLE epoch observation values (Epoch: 2025-11-03T23:46:29.459Z)
Latitude
0.00002°
Longitude
105.04984°
Altitude
1,419.846 km
Speed
8.759 km/s
True Right ascension
09h 40m 37s
True Declination
0° 00' 00"
Sunlit
Object was in daylight at epoch
Visualization orbit readout
Latitude
Unknown
Longitude
Unknown
Altitude
Unknown
Speed
Unknown
Apparent Right ascension
Unknown
Apparent Declination
Unknown
Sunlit
N/A
Visualization observer readout
Local Sidereal Time
16:23:35
Azimuth
Unknown
Elevation
Unknown
Doppler factor
Unknown
Orbital elements
Apogee altitude
18,279.285 km
Perigee altitude
229.185 km
Semi-major axis
15,632.372 km
Eccentricity
0.57733
Inclination
6.2449°
RAAN
145.0171°
Arg. of periapsis
305.8215°
True anomaly
54.19165°
Mean anomaly
13.2951°
Eccentric anomaly
29.66828°
Mean motion
1.11047 °/min
Orbital period
324.19 mins
BSTAR
0.0065842
Loading maneuver chart data...
Computing Atmospheric mass density...
Loading historical data...
Loading historical data...
Loading historical data...
Loading historical data...
Loading historical data...
Loading historical data...
Loading historical data...
Other satellites on launch #170 in the year 2022 (2022-12-13 UTC)

Documentation

Showing up to 5 results
|